Location: Pcim
(49.7500°N, 19.9670°E)
Time: 02:26:22
(UTC+02:00)

Oscar 11 - Pass Details

Date: 28 April 2024
Orbit: 595 x 604 km, 97.8° (Epoch: 19 June)

Event Time Altitude Azimuth Distance (km) Brightness Sun altitude
Rises 04:13:44 0° 17° (NNE) 2,883 11.5 -10.4°
Reaches altitude 10° 04:15:58 10° 22° (NNE) 1,972 10.6 -10.1°
Maximum altitude 04:20:10 54° 100° (E) 740 7.8 -9.5°
Drops below altitude 10° 04:24:20 10° 178° (S) 1,948 9.3 -9.0°
Enters shadow 04:27:05 -2° 184° (S) 3,074 10.3 -8.6°
